钟子号卫星2组 05星 (NINGXIA-1 10)

导读

NINGXIA-1 10卫星由中国发射,于北京时间2021年7月9日8时成功进入太空。这颗卫星是宁夏一号卫星星座的组成部分,主要服务于地方遥感观测需求,可获取地面影像信息,在自然资源监测、生态环境保护、灾害应急响应等领域发挥作用,助力区域经济社会发展与空间信息基础设施建设。

基本信息
目录编号:
49022
目录名称:
NINGXIA-1 10
国际标识:
2021-064E
轨道中心:
EARTH
卫星名称:
钟子号卫星2组 05星
卫星全名:
钟子号卫星2组 05星 (NINGXIA-1 10)
卫星状态:
在轨 (已飞行1891 天)
发射日期:
2021-07-09 UTC
国别 :
中国 (CN)
星等 :
--
该卫星已列入 空间交会检测服务 Space Conjunction Data Service (SCDS) ,当前飞行风险评估等级: 无高风险
轨道信息
数据来源 国际轨道数据 AOE轨道数据
星历时间 2026-09-12T05:23:19+0800
6小时前
查看轨道信息
2026-09-10T23:00:00+0800
1天前
查看轨道信息
半长轴 7242.43km 7242.431km
偏心率 0.0009145 0.0008958
轨道倾角 44.998° 44.998°
近地点辐角 312.541° 306.873°
升交点赤经 194.720° 200.445°
平近点角 47.465° 106.455°
近地点 857.669km 857.806km
远地点 870.917km 870.782km
周期 102.232分钟 102.232分钟
每日圈数 14.085632 14.085629
详细信息
平衡模式:
三轴稳定
覆盖范围:
全球
运营商:
夏威夷科学技术博物馆
运营商所在国:
美国
制造商(研发单位):
中国东方红卫星股份有限公司
制造商所在国:
中国
使用方式:
暂无
卫星简介
钟子号卫星星座(Zhongzi)是由宁夏金硅信息技术有限公司自主投资建设的商业航天项目,卫星由五院所属航天东方红卫星有限公司抓总研制,主要应用于遥感探测等领域。该卫星仍在工作。
2D轨道图
3D轨道图
轨道高度分析图
轨道倾角分析图
轨道综合分析图
查看轨道综合分析图
与全量物体交会距离演化趋势
与全量物体交会风险概率演化趋势